Regional Weather Roundup
Issued by NWS

Home | Current Version | Previous Version | Text Only | Print | Product List | Glossary Off
Versions: 1 2 3 4 5 6 7 8 9 10 11 12 13 14 15 16 17 18 19 20 21 22 23 24 25 26 27 28 29 30 31 32 33 34 35 36 37 38 39 40 41 42 43 44 45 46 47 48 49 50

000
ASUS45 KBOU 261307
RWRCO

WEATHER ROUNDUP FOR COLORADO
NATIONAL WEATHER SERVICE DENVER/BOULDER CO
700 AM MDT TUE MAY 26 2015

NOTE: "FAIR" INDICATES FEW OR NO CLOUDS BELOW 12000 FEET WITH NO
SIGNIFICANT WEATHER AND/OR OBSTRUCTIONS TO VISIBILITY.

COZ001>005-013-030-031-261400-
...NORTHWEST COLORADO...

CITY           SKY/WX    TMP DP  RH WIND       PRES   REMARKS
CRAIG          CLOUDY    44  41  89 CALM      30.11R
HAYDEN         CLOUDY    43  37  81 E9        30.11S
MEEKER         PTSUNNY   42  38  85 NW3       30.12R
MOUNT WERNER   NOT AVBL
STEAMBOAT SPGS CLOUDY    40  38  95 CALM      30.13R
WALDEN         PTSUNNY   36  34  93 CALM      30.15R
$$

COZ006>008-011-261400-
...WEST CENTRAL VALLEYS...

CITY           SKY/WX    TMP DP  RH WIND       PRES   REMARKS
GRAND JUNCTION MOSUNNY   51  45  79 E10       30.06R
MONTROSE       PTSUNNY   47  40  76 SE7       30.13R
EAGLE          PTSUNNY   45  45 100 CALM      30.16S
RIFLE          CLOUDY    45  42  89 SW3       30.12R
DELTA          MOSUNNY   50  44  79 MISG      30.11S
NUCLA          PTSUNNY   45  37  76 E5        30.17R
$$

COZ017>023-064>068-261400-
...SOUTHWEST COLORADO...

CITY           SKY/WX    TMP DP  RH WIND       PRES   REMARKS
DURANGO        SUNNY     38  37  97 CALM      30.17R
CORTEZ         SUNNY     40  38  93 CALM      30.13R
PAGOSA SPRINGS SUNNY     37  37 100 CALM      30.20S
TELLURIDE      SUNNY     38  34  86 SE5       30.26R
WOLF CREEK PAS NOT AVBL
$$

COZ009-010-012-014-032>034-037-058>063-261400-
...CENTRAL COLORADO...

CITY           SKY/WX    TMP DP  RH WIND       PRES   REMARKS
ASPEN          CLOUDY    41  39  93 SW3       30.16R
BUENA VISTA    MOSUNNY   37  34  89 CALM      30.17R
COPPER MTN     FOG       34  30  86 W15       30.28R VSB 1/4 WCI  24
BERTHOUD PASS  CLOUDY    25  18  74 NW22G35   30.28R WCI  10
COTTONWOOD PAS MOSUNNY   43  30  61 N5        30.21R
GUNNISON       MOSUNNY   37  32  81 N3        30.21S
KREMMLING      CLOUDY    41  37  87 CALM      30.17R
LEADVILLE      CLOUDY    36  32  85 N7        30.21R
SALIDA         MOSUNNY   43  36  76 CALM      30.23R
SUNLIGHT       CLOUDY    36  36 100 CALM      30.29R FOG
WILKERSON PASS SUNNY     32  28  86 NW6       30.28R WCI  26
$$

COZ069>075-261400-
...SAN LUIS VALLEY/SANGRE DE CRISTO MOUNTAINS...

CITY           SKY/WX    TMP DP  RH WIND       PRES   REMARKS
ALAMOSA        SUNNY     39  34  82 SE5       30.18R
LA VETA PASS   FOG      N/A N/A N/A MISG      30.23R VSB 1
SAGUACHE       SUNNY     39  34  81 W3        30.19R
$$

COZ035-036-038>040-261400-
...NORTHERN COLORADO FRONT RANGE...

CITY           SKY/WX    TMP DP  RH WIND       PRES   REMARKS
DENVER INTL AP PTSUNNY   51  43  74 SW10      30.05R
DMNS CITY PARK   N/A     47  43  85 S5        30.06R
AURORA         NOT AVBL
FRONT RANGE AP PTSUNNY   50  46  87 S5        30.06R
ERIE MUNI ARPT CLOUDY    44  44  98 CALM      30.05R
BOULDER MUN AP MOSUNNY   45  43  93 CALM      30.05R
CENTENNIAL     PTSUNNY   46  42  86 E3        30.07R
BROOMFIELD     MOSUNNY   46  43  87 CALM      30.06R
FORT COLLINS   PTSUNNY   48  45  87 CALM      30.05R
LONGMONT       PTSUNNY   47  44  90 CALM      30.06S
$$

COZ041-046-047-076>085-087-088-261400-
...PIKES PEAK/PALMER DIVIDE AND SOUTHERN FOOTHILLS...

CITY           SKY/WX    TMP DP  RH WIND       PRES   REMARKS
COLO. SPRINGS  MOSUNNY   48  41  76 N7        30.09R
A. F. ACADEMY  SUNNY     41  41  99 VRB6      30.09R
ELLICOTT       NOT AVBL
FALCON         SUNNY     44  41  88 CALM      30.12R
FORT CARSON    NOT AVBL
LIMON          CLOUDY    47  43  86 SW5       30.06R
MONUMENT HILL  NOT AVBL
TRINIDAD       SUNNY     47  42  83 SW10      30.09R
$$

COZ042>045-048>051-090-091-261400-
...NORTHEAST COLORADO...

CITY           SKY/WX    TMP DP  RH WIND       PRES   REMARKS
GREELEY ARPT   CLOUDY    48  46  93 CALM      30.05R
AKRON          PTSUNNY   50  48  93 NW7       30.02R
BURLINGTON     MOSUNNY   51  46  83 NW9       30.01R
WRAY           MOSUNNY   52  51  97 NW7       29.98R
STERLING       CLOUDY    52  50  93 NW5       30.00R
HOLYOKE        NOT AVBL
FORT MORGAN    PTSUNNY   49  45  87 NW6       30.03S
$$

COZ086-089-092>099-261400-
...SOUTHEAST COLORADO...

CITY           SKY/WX    TMP DP  RH WIND       PRES   REMARKS
PUEBLO         SUNNY     49  45  86 CALM      30.05R
LA JUNTA       PTSUNNY   52  47  83 W8        30.04
LAMAR          MOSUNNY   54  52  93 SW6       30.01R
SPRINGFIELD      N/A     51  47  86 NW7       30.03R
$$


USA.gov is the U.S. government's official web portal to all federal, state and local government web resources and services.